Weather in Ujur

Russia / Krasnoyarsk Krai     55°19′12″N   89°50′38″E
temp.,
°C
wind,
m/s
gust,
m/s
humid.,
%
clouds,
%
prec.,
mm/h
press.,
hPa
HPBL,
m
24 may, tue
tue2401:00+9wsw11610 0.0 102510
04:00+7ssw11640 0.0 102510
07:00+11sse22555 0.0 1025139
10:00+16se44375 0.0 10231017
13:00+20ese44260 0.0 10211321
16:00+22e44250 0.0 10191329
19:00+21e45310 0.0 1018995
22:00+15ene2252100 0.0 101811
25 may, wed
wed2501:00+13ne2249100 0.0 101815
04:00+12ne226990 0.0 101713
07:00+14n2364100 0.0 1017150
10:00+20nne3546100 0.0 1016651
13:00+24nne4435100 0.0 10151483
16:00+25nne5530100 0.0 10141779
19:00+22n693492 0.0 1014550
22:00+16n2251100 0.0 101612
26 may, thu
thu2601:00+15nw11565 0.0 101611
04:00+12nnw22692 0.0 101715
07:00+15n36700 0.0 1017281
10:00+19nne55555 0.0 10161043
13:00+21nne54430 0.0 10151703
16:00+22nne54310 0.0 10141793
19:00+20nne55340 0.0 10131468
22:00+14n33497 0.0 101436
27 may, fri
fri2701:00+11nne225974 0.0 101310
04:00+10n116444 0.0 101210
07:00+13nne1154100 0.0 1011131
10:00+18ne333929 0.0 10101240
13:00+20n443299 0.0 10091985
16:00+21n66305 0.0 10092291
19:00+19ne66402 0.0 10101560
22:00+12e38610 0.0 1013160
28 may, sat
sat2801:00+10e22680 0.0 101416
04:00+7ese22765 0.0 101536
07:00+11ese47665 0.0 1015303
10:00+16ese6643100 0.0 1013977
13:00+19ese5534100 0.0 10121424
16:00+21ese3332100 0.0 10111652
19:00+21ese4435100 0.0 1009967
22:00+14ese3549100 0.0 101068